This demonstration page uses our WeatherBlox Daily Observations layout. Learn more.

Hourly Observations for December 5, 2015

Temp ( °F °C ) Dew Point ( °F °C ) Humidity (%) Winds ( mph kmh ) Pressure ( in mb ) Visibility ( mi km ) Precip ( " mm )
12:15 am 00:15 Clear 40 4.7 34 1 77 77 SSE 14 22 30.18 1022 10 16.0934 0 0
12:35 am 00:35 Clear 42 5.5 34 0.9 73 73 SSE 15 24 30.18 1022 10 16.0934 0 0
12:55 am 00:55 Clear 42 5.7 33 0.7 71 71 S 15 24 30.18 1022 10 16.0934 0 0
1:15 am 01:15 Clear 42 5.5 33 0.7 72 72 S 16 26 30.18 1022 10 16.0934 0 0
1:35 am 01:35 Clear 42 5.3 33 0.7 73 73 S 15 24 30.18 1022 10 16.0934 0 0
1:55 am 01:55 Clear 41 5.1 33 0.8 74 74 S 17 28 30.18 1022 10 16.0934 0 0
2:15 am 02:15 Clear 41 5 33 0.8 75 75 S 15 24 30.18 1022 10 16.0934 0 0
2:35 am 02:35 Clear 40 4.7 34 0.9 77 77 S 16 26 30.18 1022 10 16.0934 0 0
2:55 am 02:55 Clear 40 4.5 34 0.9 78 78 S 14 22 30.18 1022 10 16.0934 0 0
3:15 am 03:15 Clear 40 4.5 34 1 78 78 S 14 22 30.18 1022 10 16.0934 0 0
3:35 am 03:35 Clear 40 4.2 34 1 80 80 S 14 22 30.18 1022 10 16.0934 0 0
3:55 am 03:55 Clear 40 4.4 34 1 79 79 S 15 24 30.18 1022 10 16.0934 0 0
4:15 am 04:15 Clear 40 4.2 34 1.1 80 80 SSE 13 20 30.18 1022 10 16.0934 0 0
4:35 am 04:35 Clear 39 4.1 34 1 80 80 SSE 13 20 30.15 1021 10 16.0934 0 0
4:55 am 04:55 Clear 39 3.8 34 1 82 82 SSE 13 20 30.15 1021 10 16.0934 0 0
5:15 am 05:15 Clear 39 3.7 34 1 83 83 S 12 19 30.15 1021 10 16.0934 0 0
5:35 am 05:35 Clear 38 3.4 34 1 84 84 SSE 12 19 30.18 1022 10 16.0934 0 0
5:55 am 05:55 Clear 38 3.5 34 1 84 84 SSE 12 19 30.15 1021 10 16.0934 0 0
6:15 am 06:15 Clear 38 3.5 34 1 84 84 S 13 20 30.15 1021 10 16.0934 0 0
6:35 am 06:35 Clear 38 3.5 34 1 84 84 S 9 15 30.15 1021 10 16.0934 0 0
6:55 am 06:55 Clear 38 3.2 34 1.1 86 86 S 8 13 30.18 1022 10 16.0934 0 0
7:15 am 07:15 Clear 38 3.2 34 1 86 86 SSE 9 15 30.18 1022 10 16.0934 0 0
7:35 am 07:35 Clear 37 3 34 1 87 87 S 9 15 30.18 1022 10 16.0934 0 0
7:55 am 07:55 Sunny 37 3 34 1 87 87 S 10 17 30.18 1022 10 16.0934 0 0
8:15 am 08:15 Sunny 37 3 34 1 87 87 S 7 11 30.21 1023 10 16.0934 0 0
8:35 am 08:35 Sunny 37 3 34 1.1 87 87 S 5 7 30.21 1023 10 16.0934 0 0
8:55 am 08:55 Sunny 38 3.3 35 1.5 88 88 S 7 11 30.21 1023 10 16.0934 0 0
9:15 am 09:15 Sunny 39 3.7 35 1.9 88 88 SSE 7 11 30.18 1022 10 16.0934 0 0
9:35 am 09:35 Sunny 40 4.3 36 2.3 87 87 SSE 7 11 30.18 1022 10 16.0934 0 0
9:55 am 09:55 Sunny 41 4.9 36 2.3 83 83 S 8 13 30.18 1022 10 16.0934 0 0
10:15 am 10:15 Sunny 41 5 36 2.3 83 83 S 9 15 30.18 1022 10 16.0934 0 0
10:35 am 10:35 Sunny 41 5.2 36 2.3 82 82 S 7 11 30.18 1022 10 16.0934 0 0
10:55 am 10:55 Sunny 42 5.5 36 2.4 81 81 S 10 17 30.18 1022 10 16.0934 0 0
11:15 am 11:15 Partly Cloudy 43 6 37 2.6 79 79 S 10 17 30.18 1022 10 16.0934 0 0
11:35 am 11:35 Sunny 44 6.7 37 2.5 75 75 SSW 12 19 30.18 1022 10 16.0934 0 0
11:55 am 11:55 Sunny 45 7 37 2.7 74 74 SSW 10 17 30.18 1022 10 16.0934 0 0
12:15 pm 12:15 Partly Cloudy 45 7.2 37 2.5 72 72 SSW 10 17 30.18 1022 10 16.0934 0 0
12:35 pm 12:35 Partly Cloudy 45 7.4 36 2.4 71 71 SW 6 9 30.18 1022 10 16.0934 0 0
12:55 pm 12:55 Mostly Cloudy 46 7.6 36 2.3 69 69 SW 5 7 30.15 1021 10 16.0934 0 0
1:15 pm 13:15 Mostly Cloudy 46 7.7 37 2.5 70 70 SSW 3 6 30.15 1021 10 16.0934 0 0
1:35 pm 13:35 Partly Cloudy 46 7.5 36 2.2 69 69 Calm 30.15 1021 10 16.0934 0 0
1:55 pm 13:55 Partly Cloudy 46 7.8 36 2.2 68 68 Calm 30.15 1021 10 16.0934 0 0
2:15 pm 14:15 Partly Cloudy 46 8 36 2.4 68 68 Calm 30.15 1021 10 16.0934 0 0
2:35 pm 14:35 Partly Cloudy 47 8.1 36 2.3 67 67 Calm 30.15 1021 10 16.0934 0 0
2:55 pm 14:55 Sunny 46 8 36 2.3 68 68 Calm 30.15 1021 10 16.0934 0 0
3:15 pm 15:15 Mostly Cloudy 46 8 37 2.5 69 69 Calm 30.15 1021 10 16.0934 0 0
3:35 pm 15:35 Partly Cloudy 46 7.9 37 2.9 71 71 NNW 5 7 30.15 1021 10 16.0934 0 0
3:55 pm 15:55 Sunny 46 7.7 38 3.1 73 73 NW 3 6 30.18 1022 10 16.0934 0 0
4:15 pm 16:15 Sunny 46 7.8 37 3 72 72 Calm 30.18 1022 10 16.0934 0 0
4:35 pm 16:35 Sunny 45 7.1 37 3 75 75 Calm 30.21 1023 10 16.0934 0 0
4:55 pm 16:55 Sunny 44 6.4 37 3 79 79 Calm 30.24 1024 10 16.0934 0 0
5:15 pm 17:15 Clear 42 5.8 37 2.7 81 81 Calm 30.24 1024 10 16.0934 0 0
5:35 pm 17:35 Clear 40 4.3 35 1.7 83 83 Calm 30.3 1026 10 16.0934 0 0
5:55 pm 17:55 Clear 39 4.1 36 2 86 86 NW 3 6 30.3 1026 10 16.0934 0 0
6:15 pm 18:15 Clear 40 4.7 35 1.6 81 81 NNW 7 11 30.27 1025 10 16.0934 0 0
6:35 pm 18:35 Clear 40 4.7 33 0.7 76 76 NNW 8 13 30.27 1025 10 16.0934 0 0
6:55 pm 18:55 Clear 40 4.5 32 0 73 73 NNW 9 15 30.27 1025 10 16.0934 0 0
7:15 pm 19:15 Clear 40 4.3 32 -0.1 73 73 N 9 15 30.33 1027 10 16.0934 0 0
7:35 pm 19:35 Partly Cloudy 39 4 31 -0.3 74 74 NNW 8 13 30.33 1027 10 16.0934 0 0
7:55 pm 19:55 Partly Cloudy 39 3.7 31 -0.5 74 74 NNW 9 15 30.33 1027 10 16.0934 0 0
8:15 pm 20:15 Partly Cloudy 39 3.9 31 -0.4 74 74 NNW 9 15 30.33 1027 10 16.0934 0 0
8:35 pm 20:35 Mostly Cloudy 39 4 32 -0.1 75 75 NNW 6 9 30.33 1027 10 16.0934 0 0
8:55 pm 20:55 Mostly Cloudy 40 4.6 32 -0.1 72 72 NNW 8 13 30.36 1028 10 16.0934 0 0
9:15 pm 21:15 Cloudy 40 4.3 32 0 74 74 NW 7 11 30.36 1028 10 16.0934 0 0
9:35 pm 21:35 Cloudy 39 4 32 0.2 77 77 NW 6 9 30.36 1028 10 16.0934 0 0
9:55 pm 21:55 Cloudy with Light Rain 41 4.9 33 0.5 73 73 NW 7 11 30.36 1028 10 16.0934 0 0
10:15 pm 22:15 Cloudy 41 5.1 32 0 70 70 NNW 8 13 30.39 1029 10 16.0934 0 0
10:35 pm 22:35 Cloudy 40 4.7 32 0 72 72 NNW 6 9 30.39 1029 10 16.0934 0 0
10:55 pm 22:55 Cloudy 40 4.3 32 -0.2 73 73 NW 8 13 30.39 1029 10 16.0934 0 0
11:15 pm 23:15 Mostly Cloudy 39 4 31 -0.5 73 73 NW 8 13 30.39 1029 10 16.0934 0 0
11:35 pm 23:35 Partly Cloudy 38 3.6 31 -0.6 74 74 NW 8 13 30.39 1029 10 16.0934 0 0
11:55 pm 23:55 Clear 37 2.6 30 -0.9 78 78 NW 8 13 30.39 1029 10 16.0934 0 0

Powered by AerisWeather